PWF180 EDDH-EDXW

Flight info

Callsign PWF180
Flight time 0h 25m
Altitude 10000
Route SOKWO1G SOKWO T814 EXNEL DCT OLDIP
Aircraft CL60/M-SADE3FGHIJ3J4J7P2RWXY/HB1D1

Departure

Time 2026-04-22 19:33
Airport Hamburg Helmut Schmidt Airport (EDDH)

Arrival

Time 2026-04-22 19:58
Airport Westerland Sylt Airport (EDXW)
Time Latitude Longitude Altitude Speed Heading
2026-04-22 19:10 53.62762 9.98879 61 ft 0 kts 62°
2026-04-22 19:26 53.62763 9.98882 61 ft 1 kts 51°
2026-04-22 19:26 53.62771 9.98869 61 ft 0 kts 239°
2026-04-22 19:26 53.62762 9.98841 61 ft 4 kts 257°
2026-04-22 19:26 53.62764 9.98826 61 ft 0 kts 301°
2026-04-22 19:28 53.62772 9.98813 61 ft 5 kts 322°
2026-04-22 19:28 53.62825 9.98813 61 ft 9 kts 47°
2026-04-22 19:28 53.62877 9.98932 61 ft 13 kts 51°
2026-04-22 19:28 53.62951 9.99081 61 ft 13 kts 49°
2026-04-22 19:29 53.62967 9.99111 61 ft 2 kts 49°
2026-04-22 19:29 53.63003 9.99183 61 ft 9 kts 50°
2026-04-22 19:29 53.63044 9.99260 61 ft 3 kts 38°
2026-04-22 19:29 53.63096 9.99295 61 ft 9 kts 14°
2026-04-22 19:30 53.63122 9.99307 61 ft 10 kts 14°
2026-04-22 19:30 53.63150 9.99318 61 ft 0 kts 14°
2026-04-22 19:32 53.63234 9.99351 61 ft 18 kts 11°
2026-04-22 19:32 53.63313 9.99362 61 ft 0 kts 335°
2026-04-22 19:32 53.63325 9.99352 61 ft 18 kts 334°
2026-04-22 19:32 53.63863 9.98875 61 ft 121 kts 334°
2026-04-22 19:33 53.64965 9.97950 408 ft 160 kts 331°
2026-04-22 19:33 53.66114 9.97025 1368 ft 160 kts 333°
2026-04-22 19:33 53.67268 9.96035 2246 ft 170 kts 333°
2026-04-22 19:33 53.68588 9.94928 3113 ft 188 kts 339°
2026-04-22 19:34 53.70142 9.94570 3863 ft 199 kts 358°
2026-04-22 19:34 53.71767 9.94570 4003 ft 197 kts 359°
2026-04-22 19:34 53.73401 9.94748 3996 ft 201 kts 15°
2026-04-22 19:34 53.74979 9.96148 4281 ft 242 kts 30°
2026-04-22 19:35 53.76462 9.97765 5274 ft 249 kts 30°
2026-04-22 19:35 53.77861 9.99291 6227 ft 255 kts 30°
2026-04-22 19:35 53.78932 10.00461 6924 ft 259 kts 30°
2026-04-22 19:35 53.81020 10.02741 8065 ft 274 kts 31°
2026-04-22 19:36 53.82748 10.04629 8724 ft 291 kts 31°
2026-04-22 19:36 53.84513 10.06562 9500 ft 301 kts 31°
2026-04-22 19:36 53.86297 10.08517 9904 ft 308 kts 31°
2026-04-22 19:36 53.88146 10.10407 9998 ft 307 kts 24°
2026-04-22 19:37 53.90194 10.11294 9996 ft 304 kts
2026-04-22 19:37 53.92320 10.10897 9996 ft 304 kts 348°
2026-04-22 19:37 53.94375 10.10016 10009 ft 303 kts 347°
2026-04-22 19:37 53.96433 10.09131 10220 ft 305 kts 347°
2026-04-22 19:38 53.98505 10.08244 10302 ft 308 kts 347°
2026-04-22 19:38 54.00589 10.07351 10325 ft 307 kts 347°
2026-04-22 19:38 54.02700 10.06447 10331 ft 307 kts 347°
2026-04-22 19:38 54.04773 10.05563 10335 ft 308 kts 347°
2026-04-22 19:39 54.06863 10.04683 10337 ft 308 kts 347°
2026-04-22 19:39 54.08921 10.03818 10333 ft 308 kts 347°
2026-04-22 19:39 54.10958 10.02637 10324 ft 310 kts 333°
2026-04-22 19:39 54.12653 10.00379 10322 ft 313 kts 316°
2026-04-22 19:40 54.14099 9.97635 10328 ft 313 kts 314°
2026-04-22 19:40 54.15562 9.94830 10327 ft 314 kts 314°
2026-04-22 19:40 54.17035 9.92011 10332 ft 314 kts 314°
2026-04-22 19:40 54.18486 9.89232 10330 ft 314 kts 314°
2026-04-22 19:41 54.19948 9.86432 10331 ft 314 kts 314°
2026-04-22 19:41 54.21407 9.83637 10335 ft 314 kts 314°
2026-04-22 19:41 54.22862 9.80848 10330 ft 315 kts 314°
2026-04-22 19:41 54.24329 9.78098 10333 ft 314 kts 318°
2026-04-22 19:42 54.26028 9.75799 10330 ft 312 kts 326°
2026-04-22 19:42 54.27797 9.73610 10320 ft 311 kts 326°
2026-04-22 19:42 54.29537 9.71443 10327 ft 312 kts 326°
2026-04-22 19:42 54.31291 9.69256 10341 ft 312 kts 326°
2026-04-22 19:43 54.34800 9.64873 10325 ft 311 kts 326°
2026-04-22 19:43 54.36539 9.62658 10324 ft 312 kts 322°
2026-04-22 19:43 54.37930 9.59856 10324 ft 315 kts 302°
2026-04-22 19:44 54.38902 9.56426 10317 ft 317 kts 297°
2026-04-22 19:44 54.39814 9.53005 10325 ft 317 kts 297°
2026-04-22 19:44 54.40732 9.49575 10329 ft 318 kts 297°
2026-04-22 19:44 54.41647 9.46155 10333 ft 318 kts 297°
2026-04-22 19:45 54.42573 9.42693 10337 ft 318 kts 297°
2026-04-22 19:45 54.43635 9.38721 10334 ft 318 kts 297°
2026-04-22 19:45 54.44582 9.35177 10335 ft 319 kts 297°
2026-04-22 19:45 54.45504 9.31717 10333 ft 318 kts 296°
2026-04-22 19:46 54.46437 9.28218 10352 ft 319 kts 297°
2026-04-22 19:46 54.47348 9.24796 10326 ft 318 kts 296°
2026-04-22 19:46 54.48280 9.21293 10345 ft 318 kts 296°
2026-04-22 19:46 54.49198 9.17839 10330 ft 318 kts 296°
2026-04-22 19:47 54.50117 9.14379 10332 ft 318 kts 296°
2026-04-22 19:47 54.51020 9.10974 10324 ft 318 kts 296°
2026-04-22 19:47 54.51648 9.08608 10115 ft 321 kts 296°
2026-04-22 19:47 54.52856 9.04041 9605 ft 315 kts 296°
2026-04-22 19:48 54.53754 9.00646 9203 ft 312 kts 296°
2026-04-22 19:48 54.54646 8.97270 8802 ft 309 kts 296°
2026-04-22 19:48 54.55532 8.93911 8402 ft 307 kts 296°
2026-04-22 19:48 54.56412 8.90572 7991 ft 304 kts 297°
2026-04-22 19:49 54.57280 8.87275 7599 ft 303 kts 297°
2026-04-22 19:49 54.58152 8.83956 7184 ft 300 kts 297°
2026-04-22 19:49 54.59026 8.80626 6791 ft 296 kts 297°
2026-04-22 19:49 54.59863 8.77431 6406 ft 295 kts 297°
2026-04-22 19:50 54.60709 8.74202 6005 ft 292 kts 297°
2026-04-22 19:50 54.61630 8.71133 5640 ft 287 kts 308°
2026-04-22 19:50 54.63067 8.68795 5250 ft 282 kts 325°
2026-04-22 19:50 54.64662 8.66840 4861 ft 280 kts 326°
2026-04-22 19:51 54.66222 8.64926 4499 ft 278 kts 325°
2026-04-22 19:51 54.67788 8.63002 4126 ft 276 kts 325°
2026-04-22 19:51 54.69344 8.61090 3763 ft 270 kts 325°
2026-04-22 19:51 54.70847 8.59243 3432 ft 260 kts 325°
2026-04-22 19:52 54.72282 8.57501 3347 ft 241 kts 327°
2026-04-22 19:52 54.73605 8.55933 3348 ft 222 kts 326°
2026-04-22 19:52 54.74799 8.54449 3352 ft 204 kts 325°
2026-04-22 19:52 54.75896 8.53062 3351 ft 188 kts 325°
2026-04-22 19:53 54.76960 8.51741 3302 ft 188 kts 326°
2026-04-22 19:53 54.78025 8.50430 3029 ft 186 kts 326°
2026-04-22 19:53 54.78719 8.49578 2883 ft 180 kts 326°
2026-04-22 19:53 54.79971 8.48036 2602 ft 152 kts 326°
2026-04-22 19:54 54.80783 8.47036 2404 ft 139 kts 326°
2026-04-22 19:54 54.81572 8.46066 2204 ft 139 kts 326°
2026-04-22 19:54 54.82359 8.45097 2023 ft 133 kts 326°
2026-04-22 19:54 54.83068 8.44222 1860 ft 117 kts 326°
2026-04-22 19:55 54.83705 8.43433 1683 ft 112 kts 326°
2026-04-22 19:55 54.84333 8.42656 1534 ft 111 kts 326°
2026-04-22 19:55 54.84970 8.41871 1397 ft 111 kts 326°
2026-04-22 19:55 54.85593 8.41108 1339 ft 114 kts 326°
2026-04-22 19:56 54.86235 8.40319 1086 ft 111 kts 325°
2026-04-22 19:56 54.86867 8.39537 944 ft 112 kts 325°
2026-04-22 19:56 54.87498 8.38757 780 ft 111 kts 325°
2026-04-22 19:56 54.88132 8.37971 640 ft 112 kts 324°
2026-04-22 19:57 54.88770 8.37193 481 ft 112 kts 325°
2026-04-22 19:57 54.89407 8.36420 336 ft 113 kts 325°
2026-04-22 19:57 54.90043 8.35637 168 ft 113 kts 324°
2026-04-22 19:57 54.90685 8.34841 69 ft 111 kts 323°
2026-04-22 19:58 54.91234 8.34151 33 ft 78 kts 323°
2026-04-22 19:58 54.91471 8.33858 33 ft 29 kts 323°
2026-04-22 19:58 54.91610 8.33687 35 ft 20 kts 325°
2026-04-22 19:58 54.91692 8.33506 36 ft 17 kts 290°
2026-04-22 19:59 54.91741 8.33304 36 ft 19 kts 294°
2026-04-22 20:00 54.91126 8.33178 34 ft 20 kts 179°
2026-04-22 20:00 54.91005 8.33075 34 ft 21 kts 259°
2026-04-22 20:01 54.91062 8.32902 34 ft 18 kts 312°
2026-04-22 20:01 54.91151 8.32728 33 ft 20 kts 309°
2026-04-22 20:01 54.91195 8.32613 32 ft 9 kts 263°
2026-04-22 20:01 54.91182 8.32575 32 ft 0 kts 228°